Regional Weather Roundup
Issued by NWS

Home | Current Version | Previous Version | Text Only | Print | Product List | Glossary Off
Versions: 1 2 3 4 5 6 7 8 9 10 11 12 13 14 15 16 17 18 19 20 21 22 23 24 25 26 27 28 29 30 31 32 33 34 35 36 37 38 39 40 41 42 43 44 45 46 47 48 49 50

255
ASUS43 KBIS 261931
RWRND
NORTH DAKOTA REGIONAL WEATHER ROUNDUP
NATIONAL WEATHER SERVICE EASTERN NORTH DAKOTA/GRAND FORKS ND
200 PM CDT SAT MAY 26 2018

  NOTE: "FAIR" INDICATES FEW OR NO CLOUDS BELOW 12,000 FEET WITH NO
  SIGNIFICANT WEATHER AND/OR OBSTRUCTIONS TO VISIBILITY.

NDZ001>003-009>011-017-262000-
...NORTHWEST NORTH DAKOTA...

CITY           SKY/WX    TMP DP  RH WIND       PRES   REMARKS
WILLISTON      FAIR      85  49  28 VRB3      29.73F
MINOT          FAIR      90  45  21 S5        29.72F
MINOT AFB      FAIR      88  50  26 NW10G22   29.71F
$$

NDZ018>021-031>035-040>046-262000-
...SOUTHWEST NORTH DAKOTA...

CITY           SKY/WX    TMP DP  RH WIND       PRES   REMARKS
BISMARCK       FAIR      89  52  28 N7        29.75F
DICKINSON      FAIR      88  44  21 VRB3      29.76F
GARRISON         N/A     88  47  24 SW16      29.74S
HETTINGER      FAIR      86  54  33 SE8       29.79F
$$

NDZ004>008-012>016-024-026-027-054-262000-
...NORTHEAST NORTH DAKOTA...

CITY           SKY/WX    TMP DP  RH WIND       PRES   REMARKS
GRAND FORKS    FAIR      88  55  32 NW16G29   29.66S
GRAND FORKS AF FAIR      87  52  29 NW17      29.68S
DEVILS LAKE    FAIR      85  52  32 NW17G25   29.73S
$$

NDZ022-023-025-028>030-036>039-047>053-262000-
...SOUTHEAST NORTH DAKOTA...

CITY           SKY/WX    TMP DP  RH WIND       PRES   REMARKS
JAMESTOWN      FAIR      88  51  28 W9G21     29.73F
FARGO          FAIR      91  50  24 NW18G31   29.68F
WAHPETON       FAIR      91  41  17 NW12G21   29.70F
$$




USA.gov is the U.S. government's official web portal to all federal, state and local government web resources and services.